Regional Weather Roundup
Issued by NWS

Home | Current Version | Previous Version | Text Only | Print | Product List | Glossary On
Versions: 1 2 3 4 5 6 7 8 9 10 11 12 13 14 15 16 17 18 19 20 21 22 23 24 25 26 27 28 29 30 31 32 33 34 35 36 37 38 39 40 41 42 43 44 45 46 47 48 49 50
400
ASCA42 TJSJ 300110
RWRPR
PUERTO RICO/U.S. VIRGIN ISLANDS HOURLY WEATHER ROUNDUP
NATIONAL WEATHER SERVICE SAN JUAN PR
900 PM AST MON AUG 29 2016

PRZ001>002-007>008-010-300200-
PUERTO RICO

CITY           SKY/WX    TMP DP  RH WIND       PRES   REMARKS
SAN JUAN LMM   PTCLDY    84  75  74 S3        30.01R HX  92
AGUADILLA      CLEAR     81  79  94 CALM      30.01R
CEIBA          CLEAR     79  77  94 CALM      30.04R
$$

VIZ001>002-300200-
U.S. VIRGIN ISLANDS

CITY           SKY/WX    TMP DP  RH WIND       PRES   REMARKS
CHRISTIANSTED  CLEAR     81  75  83 N5        30.02R
$$

HOURLY WEATHER ROUNDUP FOR THE NEWS MEDIA

CITY           SKY/WX    TMP DP  RH WIND       PRES   REMARKS
ORLANDO        MOCLDY    76  73  91 E9        29.94F
NEW YORK       PTCLDY    83  61  47 N12       30.11R
NEWARK         PTCLDY    83  58  42 NW13      30.11R
CHICAGO        CLOUDY    75  72  90 NE5       30.17F
HARTFORD       CLEAR     75  54  47 CALM      30.10R
BOSTON         PTCLDY    75  54  47 N10       30.12R
DALLAS         MOCLDY    84  73  69 CALM      30.00R HX  90
PHILADELPHIA   PTCLDY    84  60  44 N14       30.11R
LOS ANGELES    MOSUNNY   73  59  61 W18       29.84F
WASHINGTON DC  PTCLDY    82  67  60 CALM      30.11R



USA.gov is the U.S. government's official web portal to all federal, state and local government web resources and services.